User: anonymous   Login
Location: Caltech
(34.1382°N, 118.1253°W)
Time: 02:15:53
(UTC-08:00)
Language:

Cosmos 1937 Rocket - Orbit

View from above orbital plane
View from above orbital plane
View from above satellite
View from above satellite

Ground track
Ground track

The orbit data is extracted from the following two-line orbital elements,

1 19039U 88029B   15024.58762101  .00000121  00000-0  48262-4 0  2354
2 19039 074.0489 109.7911 0022708 141.8484 320.3252 14.38135696405117
Epoch (UTC): 24 January 2015 14:06:10
Eccentricity: 0.0022708
inclination: 74.0489°
perigee height: 748 km
apogee height: 781 km
right ascension of ascending node: 109.7911°
argument of perigee: 141.8484°
revolutions per day: 14.38135696
mean anomaly at epoch: 320.3252°
orbit number at epoch: 40511

The dashed part of the orbit path shows where the satellite is in the earth's shadow,  

DLR